THORAD DELTA 1 DEB, 8184

Orbit data source: Space-Track

THORAD DELTA 1 DEB, 8184 is space debris in SSO originally from a launch on Fri, 15 Nov 1974 UTC launched from the Air Force Western Test Range (AFWTR). Debris objects in space refer to the collection of defunct objects orbiting the Earth. Examples of debris include non-operational satellites, rocket bodies, and fragments generated from explosions, collisions, or faulty payload assembly.

Loading next visibility...
Identifier
8184, 1974-089BA
Orbit
SSO
Country
Flag of USUS
Related business
Manufacturer
Unknown
Mission
Spacecraft
Bus & Motor
Unknown
Mass
Unknown
Launch date (UTC)
1974-11-15 (51 years ago)
Launch vehicle
Unknown
Launch site
Air Force Western Test Range (AFWTR)
Object type
Payload
Rocket body
Debris
Shape & HBR
Unknown shape, 0.6 m
Radar Cross Section
Medium (>0.1 m² and <1 m²)

Expand to show TLE details & history
Last TLE update: 12 hours ago

TLE from 12 hours ago
0 THORAD DELTA 1 DEB
1 08184U 74089BA  26062.83295100 -.00000029  00000-0  98825-4 0  9991
2 08184 101.5296  27.8163 0063540 315.4990  72.0710 12.47603348335773
Epoch: 2026-03-03T19:59Z
TLE epoch observation values (Epoch: 2026-03-03T19:59:26.966Z)
Latitude
27.68451°
Longitude
-79.76606°
Altitude
1,462.57 km
Speed
7.141 km/s
True Right ascension
01h 26m 48s
True Declination
27° 33' 22"
Sunlit
Object was in daylight at epoch
Visualization orbit readout
Latitude
Unknown
Longitude
Unknown
Altitude
Unknown
Speed
Unknown
Apparent Right ascension
Unknown
Apparent Declination
Unknown
Sunlit
N/A
Visualization observer readout
Local Sidereal Time
11:34:14
Azimuth
Unknown
Elevation
Unknown
Doppler factor
Unknown
Orbital elements
Apogee altitude
1,521.953 km
Perigee altitude
1,422.192 km
Semi-major axis
7,850.21 km
Eccentricity
0.00635
Inclination
101.5296°
RAAN
27.8163°
Arg. of periapsis
315.499°
True anomaly
72.76544°
Mean anomaly
72.071°
Eccentric anomaly
72.41805°
Mean motion
3.12048 °/min
Orbital period
115.37 mins
BSTAR
0.000098825

Documentation

Showing up to 5 results
|